Location: Mahannah Oil Field
(37.4664°N, 96.6003°W)
Time: 03:20:25
(UTC+00:00)

Vanguard 2 - Pass Details

Date: 23 June 2021
Orbit: 552 x 2937 km, 32.9° (Epoch: 28 July)

Event Time Altitude Azimuth Distance (km) Brightness Sun altitude
Rises 02:36:57 0° 274° (W) 5,717 13.0 -8.3°
Reaches altitude 10° 02:41:24 10° 271° (W) 4,330 12.2 -9.0°
Maximum altitude 02:51:50 54° 198° (SSW) 1,524 8.9 -10.6°
Enters shadow 02:57:18 15° 125° (SE) 2,398 9.4 -11.4°
